This is the latest recevied weather packets stored in our database for station/object 2E1HJE-10. If no packets are shown the sender has not sent any weather packets the latest 10 day(s).
| Time | Temp. | Humidity | Pressure | Rain* | Wind** | Luminosity | Snow |
|---|---|---|---|---|---|---|---|
| 1777413508 | 10° C | 71% | 1023.8 hPa | 0 mm | - | - | - |
| 1777412907 | 10° C | 71% | 1023.8 hPa | 0 mm | - | - | - |
| 1777412307 | 10° C | 71% | 1023.8 hPa | 0 mm | - | - | - |
| 1777411707 | 10° C | 71% | 1023.8 hPa | 0 mm | - | - | - |
| 1777410508 | 10.56° C | 72% | 1023.8 hPa | 0 mm | - | - | - |
| 1777409907 | 10.56° C | 69% | 1023.6 hPa | 0 mm | - | - | - |
| 1777408707 | 10.56° C | 69% | 1023.6 hPa | 0 mm | - | - | - |
| 1777408107 | 10° C | 69% | 1023.5 hPa | 0 mm | - | - | - |
| 1777407507 | 10° C | 69% | 1023.5 hPa | 0 mm | - | - | - |
| 1777406907 | 10.56° C | 69% | 1023.5 hPa | 0 mm | - | - | - |
| 1777406307 | 10.56° C | 68% | 1023.6 hPa | 0 mm | - | - | - |
| 1777403308 | 10.56° C | 68% | 1023.4 hPa | 0 mm | - | - | - |
| 1777402707 | 10.56° C | 63% | 1023.3 hPa | 0 mm | - | - | - |
| 1777402107 | 10.56° C | 63% | 1023.3 hPa | 0 mm | - | - | - |
| 1777401507 | 11.11° C | 63% | 1023.3 hPa | 0 mm | - | - | - |
| 1777400907 | 11.11° C | 63% | 1023.3 hPa | 0 mm | - | - | - |
| 1777400308 | 11.11° C | 64% | 1023 hPa | 0 mm | - | - | - |
| 1777399707 | 11.67° C | 64% | 1023 hPa | 0 mm | - | - | - |
| 1777399107 | 11.67° C | 59% | 1023.1 hPa | 0 mm | - | - | - |
| 1777398507 | 11.67° C | 59% | 1023.1 hPa | 0 mm | - | - | - |
| 1777397307 | 12.22° C | 60% | 1023.1 hPa | 0 mm | - | - | - |
| 1777396707 | 12.22° C | 60% | 1023.2 hPa | 0 mm | - | - | - |
| 1777396107 | 12.22° C | 60% | 1023.2 hPa | 0 mm | - | - | - |
| 1777395507 | 12.22° C | 58% | 1023.3 hPa | 0 mm | - | - | - |
| 1777394907 | 12.22° C | 58% | 1023.3 hPa | 0 mm | - | - | - |
* Rain latest hour (hover to see other rain measurements)
** Current wind speed in m/s (hover to see current wind gust speed)